Location: Ammerl�gen
(47.2167°N, 9.6000°E)
Time: 12:26:53
(UTC+00:00)

DMSP 5D-2 F13 DEB - Pass Details

Date: 29 October 2021
Orbit: 758 x 780 km, 98.7° (Epoch: 25 November)

Event Time Altitude Azimuth Distance (km) Brightness Sun altitude
Exits shadow 18:10:04 24° 33° (NNE) 1,560 ? -21.0°
Drops below altitude 10° 18:12:46 10° 6° (N) 2,301 ? -21.4°
Sets 18:15:20 0° 355° (N) 3,230 ? -21.9°
